sat.trackr.live / text

‹ back to catalog

STARLINK-34037

NORAD 63847 · 2025-093M

PAYLOAD ACTIVE UNKNOWN

§ Identity

Operator
Country
US
Launch date
2025-05-07
Launch site
AFETR
Launch vehicle
Mass (kg)
RCS (m²)

Purposes: comms

External: N2YO · Heavens-Above · Gunter

§ Orbital elements

Epoch: 2026-09-20T17:43:36.749856Z

Period
94.27 min
Inclination
43.0007°
Eccentricity
0.0000219
Mean motion
15.27592675 rev/d
Perigee alt
482.9 km
Apogee alt
483.2 km
Semi-major
6,861.1 km
B*
4.8166e-4
RAAN
56.2609°
Arg perigee
16.3270°
Mean anomaly
343.7589°
Rev number
7,780

§ Raw data

STARLINK-340371 63847U 25093M   26263.73861979  .00013021  00000+0  48166-3 0  99902 63847  43.0007  56.2609 0000219  16.3270 343.7589 15.27592675 77803

JSON: /api/v1/satellites/63847 · /tle

For live sub-satellite position, see the globe view (requires WebGL).

§ Visibility from observer

Set your observer location to see the next 7 days of passes ≥ 10°. The values pass through the URL so the page stays shareable.

No JS? Fill the form by hand. The geolocation button needs JavaScript.